Simultaneous Nadir Overpasses (SNOs) Predictions

Prediction of SNOs between METOP-C and LANDSAT-8 Satellite Orbit:

Table of predicted SNOs for the next 14.0 days since TLE Epoch: 9/14/2019
Index Date (METOP-C) Time (METOP-C) Lat,Lon (METOP-C) SZA (METOP-C ) Date (LANDSAT-8) Time (LANDSAT-8) Lat,Lon (LANDSAT-8) SZA (LANDSAT-8 ) Distance(km) Time Diff (sec)
1 09/16/2019 11:07:04 81.13, 53.10 80.65 09/16/2019 11:08:00 81.13, 53.15 80.68 0.82 56
2 09/16/2019 11:57:43 -81.16,-138.66 99.22 09/16/2019 11:57:26 -81.15,-138.83 99.25 2.99 17
3 09/19/2019 06:41:26 81.13, 119.53 81.77 09/19/2019 06:42:17 81.13, 119.57 81.79 0.66 51
4 09/19/2019 07:32:06 -81.15, -72.55 98.15 09/19/2019 07:31:43 -81.15, -72.39 98.14 2.77 23
5 09/22/2019 02:15:48 81.13,-174.03 82.88 09/22/2019 02:16:34 81.13,-173.94 82.91 1.65 46
6 09/22/2019 03:06:28 -81.15, -6.07 97.03 09/22/2019 03:06:00 -81.16, -5.88 97.02 3.23 28
7 09/24/2019 21:50:08 81.15,-107.22 84.05 09/24/2019 21:50:50 81.14,-107.37 84.05 2.65 42
8 09/24/2019 22:40:48 -81.17, 60.79 95.85 09/24/2019 22:40:16 -81.17, 60.70 95.88 1.63 32
9 09/27/2019 17:24:31 81.13, -41.16 85.12 09/27/2019 17:25:08 81.13, -41.10 85.14 1.04 37




NCC Satellite Simultaneous Nadir Overpasses (SNOs) Prediction Service
